Сачхере

Грузия     42°20′17″N   43°23′48″E
темп.,
°C
ветер,
м/с
пор.,
м/с
влажн.,
%
обл.,
%
осадки,
мм/ч
давл.,
гПа
погр.,
м
16 апреля, пт
пт1601:00+5с119030 0.0 102112
04:00+5всв22878 0.0 102115
07:00+5всв22785 0.0 102126
10:00+14юв23475 0.0 1019629
13:00+18юв23335 0.0 10171872
16:00+19зюз243055 0.0 10172638
19:00+14з1153100 0.0 101814
22:00+9всв226125 0.0 102019
17 апреля, сб
сб1701:00+8всв226296 0.0 102117
04:00+7всв226297 0.0 102118
07:00+8в226331 0.0 102134
10:00+16вюв354554 0.0 1019796
13:00+19юв2239100 0.0 10181362
16:00+15з4468100 0.0 1019669
19:00+10з2490100 0.1 1021356
22:00+9з2597100 0.1 1023367
18 апреля, вс
вс1801:00+9з0196100 0.0 1022105
04:00+9в1193100 0.0 102022
07:00+10в2283100 0.0 101927
10:00+12в2382100 0.2 1019111
13:00+21вюв114535 0.0 10171246
16:00+20зсз5946100 0.1 10152397
19:00+13сз3782100 1.1 1018266
22:00+11св1190100 1.1 101914
19 апреля, пн
пн1901:00+10с1189100 0.0 101912
04:00+10ссв1190100 0.0 101915
07:00+10св118945 0.0 101914
10:00+18зюз125898 0.0 1018629
13:00+21з3743100 0.0 10161594
16:00+22з583899 0.1 10152025
19:00+19ююв115983 0.0 101411
22:00+14в326986 0.0 101538
20 апреля, вт
вт2001:00+14в3367100 0.0 101664
04:00+15в41162100 0.0 1013365
07:00+16в61457100 0.0 1011520
10:00+20вюв7114943 0.0 1009691
13:00+24ююв2241100 0.1 10101300
16:00+23вюв7950100 0.1 10061000
19:00+10зюз4898100 2.9 1015491
22:00+9з41098100 3.4 1018775